Location: Palomar Mountain Lodge
(33.3110°N, 116.8495°W)
Time: 01:49:13
(UTC-08:00)

Cosmos 1867 - Pass Details

Date: 12 July 2018
Orbit: 773 x 803 km, 65.0° (Epoch: 18 November)

Event Time Altitude Azimuth Distance (km) Brightness Sun altitude
Rises 20:38:00 0° 203° (SSW) 3,239 6.6 -7.9°
Reaches altitude 10° 20:40:23 10° 202° (SSW) 2,318 5.9 -8.4°
Maximum altitude 20:45:42 79° 116° (ESE) 800 3.5 -9.3°
Drops below altitude 10° 20:51:06 10° 31° (NNE) 2,351 6.1 -10.2°
Sets 20:53:32 0° 30° (NNE) 3,288 6.8 -10.6°
